Terminal Aerodrome Forecast
Issued by NWS

Home | Current Version | Previous Version | Text Only | Print | Product List | Glossary On
Versions: 1 2 3 4 5 6 7 8 9 10 11 12
000
FTUS45 KRIW 210527
TAFBPI
TAF
KBPI 210527Z 2106/2206 18008KT 5SM -SN SCT024 OVC040
     FM211800 24012G22KT P6SM VCSH OVC026
     FM220200 28015KT 2SM -SN OVC018=

USA.gov is the U.S. government's official web portal to all federal, state and local government web resources and services.